Regional Weather Roundup
Issued by NWS

Home | Current Version | Previous Version | Graphics & Text | Print | Product List | Glossary On
Versions: 1 2 3 4 5 6 7 8 9 10 11 12 13 14 15 16 17 18 19 20 21 22 23 24 25 26 27 28 29 30 31 32 33 34 35 36 37 38 39 40 41 42 43 44 45 46 47 48 49 50
000
ASUS43 KLSX 211907
RWRMO

WEATHER SUMMARY FOR MISSOURI
NATIONAL WEATHER SERVICE SPRINGFIELD MO
200 PM CDT MON AUG 21 2017

NOTE: "FAIR" INDICATES FEW OR NO CLOUDS BELOW 12,000 FEET WITH NO
       SIGNIFICANT WEATHER AND/OR OBSTRUCTIONS TO VISIBILITY.
       CURRENT SKY AND/OR WEATHER CONDITIONS ARE NOT AVAILABLE FOR
       CHILLICOTHE AND FARMINGTON.

MOZ001>031-035>038-043-044-053-054-212000-
...NORTHERN AND WESTERN MISSOURI...

CITY           SKY/WX    TMP DP  RH WIND       PRES   REMARKS
KANSAS CTY INT TSTM      73  72  96 NE9       30.06R VSB 1/4
KANSAS C DTWN  CLOUDY    81  75  82 SE6       30.01F
LEE`S SUMMIT   MOSUNNY   78  73  84 E9        30.04F
ST JOSEPH      MOSUNNY   76  73  91 S6        30.01F
CHILLICOTHE      N/A     74  73  97 E3        30.03F
KIRKSVILLE     LGT RAIN  71  32  23 E12       30.05F

$$
MOZ066>068-077>081-088>096-101>105-212000-
...SOUTHWEST MISSOURI...

CITY           SKY/WX    TMP DP  RH WIND       PRES   REMARKS
SPRINGFIELD    SUNNY     84  75  74 S7        30.10F HX  92
JOPLIN         SUNNY     88  76  67 S10       30.08S HX  99
BRANSON        MOSUNNY   82  73  74 S3        30.12F

$$
MOZ032>034-039>042-045>050-055>058-069>072-212000-
...CENTRAL MISSOURI...

CITY           SKY/WX    TMP DP  RH WIND       PRES   REMARKS
COLUMBIA       MOSUNNY   87  75  67 W5        30.08F HX  96
JEFFERSON CITY MOSUNNY   89  77  67 SW6       30.05F HAZE    HX 101
ROLLA          SUNNY     86  75  69 S6        30.11F HX  95
SEDALIA        CLOUDY    84  78  82 N6        30.08F HX  95
WHITEMAN AFB   MOSUNNY   81  79  93 NE6       30.05F HX  91
WARRENSBURG    SUNNY     79  72  78 NE5       30.06S
OSAGE BEACH    SUNNY     86  75  69 S6        30.09S HX  95

$$
MOZ051-052-059>065-212000-
...EAST CENTRAL MISSOURI...

CITY           SKY/WX    TMP DP  RH WIND       PRES   REMARKS
ST LOUIS INTL  PTSUNNY   91  75  59 VRB7      30.06F HX 101
SPIRIT OF STL  SUNNY     88  78  72 W3        30.05S HX 101
ST CHARLES     PTSUNNY   84  75  74 NE13      30.05S HX  92

$$
MOZ072>076-082>087-097>100-106>115-212000-
...SOUTH CENTRAL AND SOUTHEAST MISSOURI...

CITY           SKY/WX    TMP DP  RH WIND       PRES   REMARKS
CAPE GIRARDEAU SUNNY     86  79  79 CALM      30.08F HX  99
FARMINGTON     MOSUNNY   87  76  69 S7        30.11F HX  97
POPLAR BLUFF   SUNNY     87  80  79 S3        30.08F HX 103
WEST PLAINS    SUNNY     85  72  65 S6        30.14F HX  91

$$



USA.gov is the U.S. government's official web portal to all federal, state and local government web resources and services.